Tracking 33404 objects as of 6-Mar-2026
HD Live streaming from Space Station
objects crossing your sky now

STARLINK-35489

Track STARLINK-35489 now!
10-day predictions
STARLINK-35489 is classified as:


NORAD ID: 65857
Int'l Code: 2025-223D
Perigee: 481.7 km
Apogee: 482.9 km
Inclination: 53.2 °
Period: 94.1 minutes
Semi major axis: 6853 km
RCS: Unknown
Launch date: October 3, 2025
Source: United States (US)
Launch site: AIR FORCE WESTERN TEST RANGE (AFWTR)
Your satellite tracking list
Your tracking list is empty




NASA's NSSDC Master Catalog

Two Line Element Set (TLE):
1 65857U 25223D   26065.05116423  .00023846  00000-0  81440-3 0  9999
2 65857  53.1572 311.4295 0000872  99.0511 261.0588 15.30210392 23644
Source of the keplerian elements: AFSPC